Tracking 34141 objects as of 18-May-2026
HD Live streaming from Space Station
objects crossing your sky now

COSMOS 1275 DEB

Track COSMOS 1275 DEB now!
10-day predictions


NORAD ID: 20505
Int'l Code: 1981-053MS
Perigee: 698.3 km
Apogee: 722.3 km
Inclination: 83.1 °
Period: 98.8 minutes
Semi major axis: 7081 km
RCS: 0.0047 m2 (small)
Launch date: June 4, 1981
Source: Commonwealth of Independent States (former USSR) (CIS)
Launch site: PLESETSK MISSILE AND SPACE COMPLEX (PKMTR)

Note: This is SATELLITE DEBRIS
Your satellite tracking list
Your tracking list is empty




NASA's NSSDC Master Catalog

Two Line Element Set (TLE):
1 20505U 81053MM  26138.11686869  .00004939  00000-0  10946-2 0  9991
2 20505  83.1491 276.3949 0016971 105.0200 255.2882 14.56907037671088
Source of the keplerian elements: AFSPC